Regional Weather Roundup
Issued by NWS

Home | Current Version | Previous Version | Text Only | Print | Product List | Glossary On
Versions: 1 2 3 4 5 6 7 8 9 10 11 12 13 14 15 16 17 18 19 20 21 22 23 24 25 26 27 28 29 30 31 32 33 34 35 36 37 38 39 40 41 42 43 44 45 46 47 48 49 50
000
ASUS43 KDTX 170001
RWRMI
MICHIGAN HOURLY REGIONAL WEATHER ROUNDUP
NATIONAL WEATHER SERVICE DETROIT/PONTIAC MI
800 PM EDT WED AUG 16 2017

NOTE: "FAIR" INDICATES FEW OR NO CLOUDS BELOW 12,000 FEET WITH NO
SIGNIFICANT WEATHER AND/OR OBSTRUCTION TO VISIBILITY.

MIZ047>049-052>055-059>063-066>070-074>076-081>083-170100-
SOUTHEAST LOWER MICHIGAN

CITY           SKY/WX    TMP DP  RH WIND       PRES   REMARKS
ADRIAN         CLEAR     77  63  61 SE9       30.00R
6HR MIN TEMP:  77; 6HR MAX TEMP:  87;

ALMA           CLEAR     78  62  58 SE7       29.96S
ANN ARBOR      PTCLDY    77  59  53 SE7       30.00R
BAD AXE        CLEAR     71  57  62 CALM      30.03S
6HR MIN TEMP:  71; 6HR MAX TEMP:  77;

CARO           CLEAR     74  58  57 E6        29.99S
DETROIT CITY   CLEAR     77  60  55 SE10      30.01R
6HR MIN TEMP:  77; 6HR MAX TEMP:  82;

DETROIT        PTCLDY    79  58  48 E9        30.01R
6HR MIN TEMP:  79; 6HR MAX TEMP:  84;

FLINT          CLEAR     77  60  55 SE10      29.99R
6HR MIN TEMP:  77; 6HR MAX TEMP:  82;

GROSSE ILE     CLEAR     76  58  53 SE9       30.00R
6HR MIN TEMP:  76; 6HR MAX TEMP:  81;

HILLSDALE      CLEAR     79  63  57 E6        29.98S
HOWELL         CLEAR     79  60  52 SE8       29.99S
6HR MIN TEMP:  79; 6HR MAX TEMP:  85;


CITY           SKY/WX    TMP DP  RH WIND       PRES   REMARKS
JACKSON        CLEAR     80  63  55 E12       29.98S
LAMBERTVILLE   CLEAR     76  61  60 E5        29.99S
6HR MIN TEMP:  76; 6HR MAX TEMP:  82;

LANSING        CLEAR     80  63  55 SE9       29.97S
6HR MIN TEMP:  80; 6HR MAX TEMP:  85;

LAPEER         FAIR      76  60  57 CALM      30.01R
6HR MIN TEMP:  76; 6HR MAX TEMP:  81;

MONROE         CLEAR     75  62  62 SE7       30.00R
6HR MIN TEMP:  75; 6HR MAX TEMP:  81;

MT. CLEMENS    PTCLDY    75  64  67 SE9       30.00S
6HR MIN TEMP:  75; 6HR MAX TEMP:  80;

PONTIAC        PTCLDY    78  60  53 SE9       30.00R
6HR MIN TEMP:  78; 6HR MAX TEMP:  82;

PORT HOPE        N/A     71  61  70 SE10      30.01F
6HR MIN TEMP:  69; 6HR MAX TEMP:  72;

PORT HURON     CLEAR     75  61  60 CALM      30.01S
TRI CITIES     CLEAR     76  69  79 NE6       29.98S
6HR MIN TEMP:  76; 6HR MAX TEMP:  82;

MIDLAND        FAIR      74  65  72 NE6       29.97S
6HR MIN TEMP:  74; 6HR MAX TEMP:  81;

TROY           CLEAR     79  58  48 E8        30.03R
SAGINAW HB     CLEAR     77  63  61 E7        29.97F
$$
MIZ043>046-050>051-056>058-064>065-071>073-077>080-170100-
SOUTHWEST LOWER MICHIGAN

CITY           SKY/WX    TMP DP  RH WIND       PRES   REMARKS
BATTLE CREEK   MOCLDY    83  65  54 S7        29.96S
6HR MIN TEMP:  83; 6HR MAX TEMP:  87;

BENTON HARBOR  CLOUDY    83  68  60 SE5       29.91S
6HR MIN TEMP:  83; 6HR MAX TEMP:  90;

BIG RAPIDS     CLEAR     78  62  58 E10G16    29.95S
6HR MIN TEMP:  78; 6HR MAX TEMP:  82;

COLDWATER      CLEAR     81  64  56 SE3       29.96S
6HR MIN TEMP:  81; 6HR MAX TEMP:  86;

FREMONT        FAIR      80  64  56 CALM      29.93S
HOLLAND        CLEAR     81  67  62 SE5       29.92F
6HR MIN TEMP:  81; 6HR MAX TEMP:  87;

GRAND RAPIDS   PTCLDY    83  65  54 SE6       29.94S
6HR MIN TEMP:  82; 6HR MAX TEMP:  88;

IONIA          FAIR      80  64  59 SE6       29.94S
6HR MIN TEMP:  80; 6HR MAX TEMP:  86;

KALAMAZOO      CLEAR     84  64  50 VRB5      29.94S
6HR MIN TEMP:  84; 6HR MAX TEMP:  89;

LUDINGTON      PTCLDY    73  64  74 CALM      29.92S
6HR MIN TEMP:  73; 6HR MAX TEMP:  79;

MARSHALL       CLEAR     82  65  56 SE3       29.96S
6HR MIN TEMP:  82; 6HR MAX TEMP:  86;

MOUNT PLEASANT CLEAR     79  64  60 E7        29.96S
6HR MIN TEMP:  79; 6HR MAX TEMP:  85;

MUSKEGON       PTCLDY    84  63  49 E6        29.92S
6HR MIN TEMP:  84; 6HR MAX TEMP:  87;

SOUTH HAVEN    CLOUDY    83  68  61 SE3       29.92S
$$
MIZ016>042-170100-
NORTHERN LOWER MICHIGAN

CITY           SKY/WX    TMP DP  RH WIND       PRES   REMARKS
ALPENA         CLEAR     67  62  84 SE10      30.03S
6HR MIN TEMP:  67; 6HR MAX TEMP:  73;

BEAVER ISLAND  PTCLDY    69  63  81 E10       29.96F
6HR MIN TEMP:  69; 6HR MAX TEMP:  76;

BELLAIRE       CLEAR     78  60  54 SE7       29.94F
6HR MIN TEMP:  78; 6HR MAX TEMP:  83;

CADILLAC       CLOUDY    78  62  58 SE7       29.97S
CHARLEVOIX     CLEAR     76  64  64 E8        29.97F
6HR MIN TEMP:  74; 6HR MAX TEMP:  79;

FRANKFORT      CLEAR     74  65  73 NE3       29.93F
GAYLORD        MOCLDY    72  60  66 E6        29.99F
6HR MIN TEMP:  72; 6HR MAX TEMP:  78;

GRAYLING       CLEAR     74  60  61 SE9       29.99F
6HR MIN TEMP:  74; 6HR MAX TEMP:  80;

HARBOR SPRINGS PTCLDY    73  63  69 E8        29.96S
HOUGHTON LAKE  CLEAR     73  62  68 E7        30.00S
6HR MIN TEMP:  73; 6HR MAX TEMP:  79;

OSCODA         MOCLDY    69  62  79 SE7       30.02S
6HR MIN TEMP:  69; 6HR MAX TEMP:  74;

PELLSTON       PTCLDY    74  63  68 E9        29.98F
6HR MIN TEMP:  74; 6HR MAX TEMP:  80;

ROGERS CITY    MOCLDY    70  61  72 SE7       30.02S
TRAVERSE CITY  MOCLDY    77  64  64 N5        29.92F
6HR MIN TEMP:  77; 6HR MAX TEMP:  85;

$$
MIZ007>008-015-170100-
EASTERN UPPER MICHIGAN

CITY           SKY/WX    TMP DP  RH WIND       PRES   REMARKS
KINROSS        CLEAR     68  58  70 SE9       30.02S
6HR MIN TEMP:  68; 6HR MAX TEMP:  74;

MACKINAC ISLAN PTCLDY    66  63  90 E13G21    30.00S
6HR MIN TEMP:  66; 6HR MAX TEMP:  69;

NEWBERRY       CLEAR     69  63  79 SE6       29.98S
6HR MIN TEMP:  69; 6HR MAX TEMP:  75;

S. S. MARIE    CLEAR     70  60  70 SE7       30.01S
6HR MIN TEMP:  70; 6HR MAX TEMP:  75;

MUNISING         N/A     67  65  93 CALM      29.94F
6HR MIN TEMP:  67; 6HR MAX TEMP:  71;

$$
MIZ004>006-011>014-085-170100-
CENTRAL UPPER MICHIGAN

CITY           SKY/WX    TMP DP  RH WIND       PRES   REMARKS
MANISTIQUE     CLOUDY    68  61  79 E6        29.96F
6HR MIN TEMP:  68; 6HR MAX TEMP:  73;

ESCANABA       MOCLDY    69  64  84 SE7       29.94F
6HR MIN TEMP:  69; 6HR MAX TEMP:  72;

MENOMINEE      CLEAR     69  63  81 E8        29.93F
6HR MIN TEMP:  69; 6HR MAX TEMP:  73;

SAWYER-GWINN   CLEAR     68  61  77 E7        29.96F
$$
MIZ001>003-009>011-084-170100-
WESTERN UPPER MICHIGAN

CITY           SKY/WX    TMP DP  RH WIND       PRES   REMARKS
IRON MOUNTAIN  CLEAR     70  56  61 SE7       29.93F
6HR MIN TEMP:  70; 6HR MAX TEMP:  76;

HOUGHTON       CLOUDY    61  57  87 E12       29.95S
6HR MIN TEMP:  61; 6HR MAX TEMP:  69;

COPPER HARBOR    N/A     63  57  81 VRB6      29.95F
6HR MIN TEMP:  63; 6HR MAX TEMP:  69;

IRONWOOD       MOSUNNY   73  60  63 E7        29.89F
6HR MIN TEMP:  72; 6HR MAX TEMP:  76;

$$

ABBREVIATIONS USED IN REMARKS
   TC - TEMPERATURE IN CELSIUS
  WCI - WIND CHILL INDEX
   HX - HEAT INDEX
  VSB - VISIBILITY




USA.gov is the U.S. government's official web portal to all federal, state and local government web resources and services.